Regional Weather Roundup
Issued by NWS

Home | Current Version | Previous Version | Graphics & Text | Print | Product List | Glossary On
Versions: 1 2 3 4 5 6 7 8 9 10 11 12 13 14 15 16 17 18 19 20 21 22 23 24 25 26 27 28 29 30 31 32 33 34 35 36 37 38 39 40 41 42 43 44 45 46 47 48 49 50
123
ASUS43 KMPX 041301
RWRMN
WEATHER ROUNDUP FOR MINNESOTA
NATIONAL WEATHER SERVICE TWIN CITIES/CHANHASSEN MN
700 AM CST SUN DEC 04 2016


NOTE: "FAIR" INDICATES FEW OR NO CLOUDS BELOW 12,000 FEET WITH NO
SIGNIFICANT WEATHER AND/OR OBSTRUCTIONS TO VISIBILITY. N/A MEANS
CURRENT SKY AND/OR WEATHER CONDITIONS ARE NOT AVAILABLE.

MNZ060>063-068>070-041400-
   Twin Cities Metro

CITY           SKY/WX    TMP DP  RH WIND       PRES   REMARKS
TWIN CITIES    LGT SNOW  32  30  92 SE9       29.94F FOG     WCI  24
ST PAUL        LGT SNOW  32  32 100 SE12      29.96F FOG     WCI  23
CRYSTAL        LGT SNOW  32  29  88 SE8       29.92F FOG     WCI  25
BLAINE         LGT SNOW  34  34 100 SE9       29.93F WCI  26
LAKEVILLE      LGT SNOW  30  30 100 SE5       29.93F WCI  25
EDEN PRAIRIE   CLOUDY    33  31  92 SE9       29.91F FOG     WCI  25
SOUTH ST PAUL  LGT SNOW  32  32 100 SE6       29.95F WCI  26
LAKE ELMO      LGT SNOW  32  32 100 SE6       29.96F WCI  26
$$
MNZ001>005-007-008-013>017-022>024-027-028-041400-
   Northwest Minnesota

CITY           SKY/WX    TMP DP  RH WIND       PRES   REMARKS
BEMIDJI        CLOUDY    30  29  97 SE12      29.80F FOG     WCI  20
HALLOCK        LGT SNOW  34  32  93 SE14      29.70F WCI  24
ROSEAU         MOCLDY    32  28  86 SE14      29.76F WCI  22
WARROAD        CLOUDY    30  27  86 SE9       29.78F WCI  22
THIEF RVR FALL LGT SNOW  32  31  96 SE14      29.75F FOG     WCI  22
CROOKSTON      MIX PCPN  34  34 100 S14       29.74F WCI  24
FOSSTON        CLOUDY    30  28  93 SE12      29.76F WCI  21
DETROIT LAKES  CLOUDY    34  32  93 S13       29.78S WCI  25
MOORHEAD       LGT SNOW  32  30  93 S17       29.77S WCI  21
PARK RAPIDS    CLOUDY    32  28  85 SE17      29.80F FOG     WCI  21
$$
MNZ006-009>011-018-025>026-041400-
   North Central Minnesota

CITY           SKY/WX    TMP DP  RH WIND       PRES   REMARKS
BAUDETTE       CLOUDY    28  25  88 SE13      29.82F WCI  17
FLAG ISLAND    CLOUDY    30  27  86 SE18G24   29.80F WCI  18
INTL FALLS     CLOUDY    27  24  89 SE9       29.87F FOG     WCI  18
WASKISH        CLOUDY    30  27  86 SE7       29.83F WCI  23
BIG FORK       LGT SNOW  28  25  86 SE8       29.86F WCI  20
LONGVILLE      FLURRIES  28  28 100 SE7       29.85S WCI  21
GRAND RAPIDS   FLURRIES  27  25  92 SE7       29.89F WCI  19
CRANE LAKE     LGT SNOW  27  25  93 S3        29.94F
COOK           LGT SNOW  27  25  93 SE5       29.91F WCI  21
$$
MNZ012-019>021-037-041400-
   Northeast Minnesota

CITY           SKY/WX    TMP DP  RH WIND       PRES   REMARKS
DULUTH         LGT SNOW  28  26  92 SE12      29.94F FOG     WCI  18
ELY            FLURRIES  27  25  93 SE8       29.94F WCI  18
HIBBING        LGT SNOW  25  24  96 SE12      29.91F FOG     WCI  14
EVELETH        LGT SNOW  28  26  93 SE6       29.93F WCI  21
DULUTH HARBOR  LGT SNOW  30  28  93 SE3       30.00F
TWO HARBORS    LGT SNOW  32  27  80 SE5       29.97F WCI  27
SILVER BAY     LGT SNOW  30  28  93 SE3       29.98F
GRAND MARAIS     N/A     35  27  72 S14       30.04F WCI  26
G MARAIS ARPRT CLOUDY    27  19  74 S7        29.98F WCI  19
$$
MNZ029>031-032-039>041-046>048-054>057-064-041400-
   West Central Minnesota

CITY           SKY/WX    TMP DP  RH WIND       PRES   REMARKS
FERGUS FALLS   LGT SNOW  34  34 100 S14       29.83F WCI  24
WHEATON        CLOUDY   N/A N/A N/A S12       29.81F
MORRIS         CLOUDY    34  32  93 S14       29.81F FOG     WCI  24
ALEXANDRIA     CLOUDY    33  32  96 S14       29.82F WCI  23
ELBOW LAKE     LGT SNOW  32  32 100 S14       29.81S WCI  22
WADENA         CLOUDY    32  30  93 S9        29.80F FOG     WCI  24
GLENWOOD       CLOUDY    32  32 100 S13       29.83F FOG     WCI  22
APPLETON       CLOUDY    36  32  87 S8        29.82F
BENSON         CLOUDY    34  32  93 S9        29.83F WCI  26
ORTONVILLE     CLOUDY    34  30  86 CALM      29.80F
MADISON        CLOUDY    36  36 100 S9        29.83F
WILLMAR        CLOUDY    34  34 100 S7        29.87F FOG     WCI  28
$$
MNZ033>034-036-042>043-049>051-058-059-041400-
   Central Minnesota

CITY           SKY/WX    TMP DP  RH WIND       PRES   REMARKS
ST CLOUD       CLOUDY    32  32 100 SE12      29.89F FOG     WCI  23
PAYNESVILLE    LGT RAIN  32  33 100 SE12      29.87F WCI  23
AITKIN         FLURRIES  32  27  80 SE10      29.87F WCI  24
PINE RIVER     CLOUDY    30  30 100 SE9       29.88F WCI  22
BRAINERD       CLOUDY    30  29  96 S12       29.87F FOG     WCI  20
STAPLES        MIX PCPN  30  30 100 SE6       29.83F WCI  24
LONG PRAIRIE   CLOUDY    32  32 100 SE10      29.84F FOG     WCI  24
LITTLE FALLS   LGT SNOW  32  30  93 SE8       29.87F WCI  25
LITCHFIELD     CLOUDY    34  34 100 SE5       29.88F FOG     WCI  30
BUFFALO        CLOUDY    33  31  94 SE7       29.91F WCI  26
MAPLE LAKE     CLOUDY    33  33  99 SE7       29.90F FOG     WCI  27
$$
MNZ037-044-045-052-053-041400-
   East Central Minnesota

CITY           SKY/WX    TMP DP  RH WIND       PRES   REMARKS
PRINCETON      LGT SNOW  34  30  86 SE7       29.91F WCI  28
MORA           LGT SNOW  32  30  93 SE6       29.94F WCI  26
CAMBRIDGE      FLURRIES  34  28  80 SE6       29.91F WCI  29
RUSH CITY      CLOUDY    30  28  93 SE7       29.94F WCI  23
MOOSE LAKE     LGT SNOW  30  28  93 SE3       29.92F
HINCKLEY       LGT SNOW  32  30  93 SE6       29.94F WCI  26
CLOQUET        LGT SNOW  27  25  93 E7        29.93F WCI  19
MCGREGOR       CLOUDY    30  28  93 SE10      29.90F WCI  21
$$
MNZ071>073-080-081-089-090-097-098-041400-
   Southwest Minnesota

CITY           SKY/WX    TMP DP  RH WIND       PRES   REMARKS
MONTEVIDEO     CLOUDY    34  34 100 S7        29.86S WCI  28
GRANITE FALLS  MOCLDY    34  33  96 SE8       29.87S WCI  28
CANBY          CLOUDY    35  31  87 SW6       29.84F WCI  30
MARSHALL       MOCLDY    33  31  92 SW9       29.86S WCI  25
REDWOOD FALLS  CLOUDY    35  32  88 S8        29.87F WCI  29
OLIVIA         CLOUDY    34  32  93 S7        29.86F FOG     WCI  28
PIPESTONE      CLOUDY    34  30  86 SW9       29.84F WCI  26
WINDOM         CLOUDY    34  34 100 CALM      29.86F
WORTHINGTON    CLOUDY    32  31  96 SW9       29.88S WCI  24
JACKSON        CLOUDY    32  32 100 SW12      29.89S FOG     WCI  23
TRACY          MOCLDY    34  32  91 SW10      29.85S WCI  26
SLAYTON        CLOUDY    32  31  96 S13       29.87S WCI  22
$$
MNZ065>067-074>077-082>085-091>093-041400-
   South Central Minnesota

CITY           SKY/WX    TMP DP  RH WIND       PRES   REMARKS
MANKATO        CLOUDY   N/A N/A N/A S8        29.91F
NEW ULM        CLOUDY    34  34 100 S8        29.88F FOG     WCI  27
ST JAMES       CLOUDY    34  34 100 S8        29.90F FOG     WCI  27
FAIRMONT       CLOUDY    33  32  96 S10       29.91S FOG     WCI  25
GLENCOE        CLOUDY    33  34 100 SE7       29.90F FOG     WCI  27
FARIBAULT      MIX PCPN  34  32  93 SE7       29.93F WCI  28
OWATONNA       LGT SNOW  34  30  86 SE12      29.92F WCI  25
WASECA         CLOUDY    32  32 100 SE9       29.92F WCI  24
ALBERT LEA     CLOUDY    36  36 100 S8        29.92F FOG
$$
MNZ078>079-086>088-094>096-041400-
   Southeast Minnesota

CITY           SKY/WX    TMP DP  RH WIND       PRES   REMARKS
ROCHESTER      LGT SNOW  32  31  96 S14       29.94F VSB 1   WCI  22
STANTON        LGT SNOW  34  31  91 SE8       29.93F WCI  27
DODGE CENTER   LGT SNOW  30  30 100 SE9       29.93F WCI  22
WINONA         LGT SNOW  32  32 100 SE8       30.01F WCI  25
AUSTIN         LGT SNOW  32  30  93 S8        29.93F WCI  25
PRESTON        LGT SNOW  31  30  95 S9        29.97F WCI  23
$$
ABBREVIATIONS USED IN REMARKS
   TC - TEMPERATURES IN CELSIUS
  WCI - WIND CHILL INDEX
   HX - HEAT INDEX
  VSB - VISIBILITY
$$




USA.gov is the U.S. government's official web portal to all federal, state and local government web resources and services.